Amritsar, India

7:16 PM IST on October 17, 2017 (GMT +0530)
Amritsar

Weather History for VIAR - December, 2013

Change the Weather History Date:

Thursday, December 5, 2013

  Actual Average Record
Temperature  
Mean Temperature 60 °F -  
Max Temperature 75 °F 69 °F 79 °F (2014)
Min Temperature 44 °F 42 °F 35 °F (2005)
Degree Days  
Heating Degree Days 6    
Growing Degree Days 10 (Base 50)    
Moisture  
Dew Point 50 °F    
Average Humidity 82    
Maximum Humidity 100    
Minimum Humidity 30    
Precipitation  
Precipitation 0.00 in - - ()
Sea Level Pressure  
Sea Level Pressure 30.00 in    
Wind  
Wind Speed 1 mph ()    
Max Wind Speed 6 mph    
Max Gust Speed -    
Visibility 1.3 miles    
Events Fog    
Averages and records for this station are not official NWS values.
T = Trace of Precipitation, MM = Missing Value Source: Averaged Metar Reports

Daily Weather History Graph

Daily Weather History Graph

Search for Another Location

Airport or City:

Trip Planner

Search our weather history database for the weather conditions in past years. The results will help you decide how hot, cold, wet, or windy it might be!

Date:

Astronomy

Dec. 05, 2013 Rise Set
Actual Time 7:15 AM IST 5:26 PM IST
Civil Twilight 6:48 AM IST 5:53 PM IST
Nautical Twilight 6:18 AM IST 6:23 PM IST
Astronomical Twilight 5:49 AM IST 6:53 PM IST
Moon 9:16 AM IST (12/5) 8:10 PM IST (12/5)
Length of Visible Light 11h 04m
Length of Day
10h 11m
Waxing Crescent, 7% of the Moon is Illuminated
Dec 5
Waxing Crescent
Dec 9
First Quarter
Dec 17
Full
Dec 25
Last Quarter
Jan 1
New

Hourly Weather History & Observations

Time (IST) Temp. Dew Point Humidity Pressure Visibility Wind Dir Wind Speed Gust Speed Precip Events Conditions
12:00 AM 51.8 °F 51.8 °F 100% 30.01 in 1.4 mi Calm Calm - N/A   Mist
12:30 AM 51.8 °F 51.8 °F 100% 30.01 in 1.2 mi Calm Calm - N/A   Mist
1:00 AM 51.8 °F 51.8 °F 100% 30.01 in 1.2 mi Calm Calm - N/A   Mist
1:30 AM 50.0 °F 50.0 °F 100% 30.01 in 1.2 mi Calm Calm - N/A   Mist
2:00 AM 51.8 °F 51.8 °F 100% 30.01 in 1.2 mi Calm Calm - N/A   Mist
2:30 AM 50.0 °F 50.0 °F 100% 30.01 in 1.2 mi Calm Calm - N/A   Mist
3:00 AM 50.0 °F 50.0 °F 100% 30.01 in 1.2 mi Calm Calm - N/A   Mist
3:30 AM 50.0 °F 50.0 °F 100% 30.01 in 1.2 mi Calm Calm - N/A   Mist
4:00 AM 50.0 °F 50.0 °F 100% 30.01 in 1.2 mi Calm Calm - N/A   Mist
4:30 AM 48.2 °F 48.2 °F 100% 29.98 in 1.0 mi Calm Calm - N/A   Mist
5:00 AM 46.4 °F 46.4 °F 100% 29.98 in 0.9 mi Calm Calm - N/A   Mist
5:30 AM 46 °F 46 °F 100% 30.03 in 1 mi Calm Calm - -   Mist
5:30 AM 46.4 °F 46.4 °F 100% 30.01 in 0.6 mi Calm Calm - N/A   Mist
6:30 AM 44.6 °F 44.6 °F 100% 30.01 in 0.3 mi Calm Calm - N/A Fog Fog
7:30 AM 44.6 °F 44.6 °F 100% 30.04 in 0.2 mi Calm Calm - N/A Fog Fog
8:00 AM 46.4 °F 46.4 °F 100% 30.04 in 0.3 mi Calm Calm - N/A Fog Fog
8:30 AM 48 °F 48 °F 100% 30.07 in 0 mi Calm Calm - - Fog Partial Fog
8:30 AM 48.2 °F 48.2 °F 100% 30.06 in 0.3 mi Calm Calm - N/A Fog Fog
9:00 AM 51.8 °F 51.8 °F 100% 30.06 in 0.3 mi Calm Calm - N/A Fog Fog
9:30 AM 57.2 °F 57.2 °F 100% 30.06 in 0.6 mi Variable 1.2 mph - N/A Fog Fog
10:00 AM 60.8 °F 59.0 °F 94% 30.06 in 0.6 mi Calm Calm - N/A   Mist
11:00 AM 66.2 °F 51.8 °F 60% 30.06 in 1.2 mi WNW 4.6 mph - N/A   Haze
11:30 AM 68 °F 50 °F 43% 30.06 in 1 mi NW 5.8 mph - -   Haze
11:30 AM 68.0 °F 50.0 °F 52% 30.06 in 1.6 mi NW 5.8 mph - N/A   Haze
12:00 PM 69.8 °F 48.2 °F 46% 30.06 in 1.9 mi Variable 4.6 mph - N/A   Haze
12:30 PM 71.6 °F 50.0 °F 46% 30.04 in 2.2 mi Variable 3.5 mph - N/A   Haze
1:00 PM 71.6 °F 46.4 °F 41% 30.04 in 2.5 mi NW 5.8 mph - N/A   Haze
1:30 PM 73.4 °F 48.2 °F 41% 30.01 in 2.5 mi NW 5.8 mph - N/A   Haze
2:00 PM 73.4 °F 50.0 °F 44% 30.01 in 2.5 mi WNW 5.8 mph - N/A   Haze
2:30 PM 74 °F 49 °F 30% 29.96 in 1 mi WNW 5.8 mph - -   Haze
2:30 PM 75.2 °F 48.2 °F 38% 29.98 in 2.5 mi WNW 5.8 mph - N/A   Haze
4:00 PM 73.4 °F 48.2 °F 41% 29.95 in 2.5 mi WNW 4.6 mph - N/A   Haze
5:30 PM 67 °F 52 °F 49% 29.93 in 1 mi Calm Calm - -   Haze
5:30 PM 68.0 °F 51.8 °F 56% 29.95 in 2.2 mi Calm Calm - N/A   Haze
6:30 PM 60.8 °F 51.8 °F 72% 29.95 in 1.9 mi Calm Calm - N/A   Haze
7:00 PM 60.8 °F 51.8 °F 72% 29.95 in 1.9 mi Calm Calm - N/A   Haze
7:30 PM 59.0 °F 50.0 °F 72% 29.95 in 1.9 mi Calm Calm - N/A   Haze
8:00 PM 59.0 °F 51.8 °F 77% 29.95 in 1.9 mi Calm Calm - N/A   Mist
8:30 PM 56 °F 53 °F 88% 29.96 in 1 mi Calm Calm - -   Mist
8:30 PM 55.4 °F 53.6 °F 94% 29.95 in 1.6 mi Calm Calm - N/A   Mist
9:00 PM 55.4 °F 55.4 °F 100% 29.95 in 1.6 mi Calm Calm - N/A   Mist
9:30 PM 55.4 °F 55.4 °F 100% 29.98 in 1.6 mi Calm Calm - N/A   Mist
10:00 PM 53.6 °F 53.6 °F 100% 29.98 in 1.6 mi Calm Calm - N/A   Mist
10:30 PM 51.8 °F 51.8 °F 100% 29.98 in 1.6 mi Calm Calm - N/A   Mist
11:00 PM 51.8 °F 51.8 °F 100% 29.98 in 1.6 mi Calm Calm - N/A   Mist
11:30 PM 53 °F 53 °F 99% 29.99 in 1 mi Calm Calm - -   Mist
11:30 PM 51.8 °F 51.8 °F 100% 29.98 in 1.6 mi Calm Calm - N/A   Mist